User: anonymous   Login
Location: Newark
(43.4956°N, 70.4470°W)
Time: 14:11:39
(UTC+00:00)
Language:

Hubble Space Telescope - Orbit

View from above orbital plane
View from above orbital plane
View from above satellite
View from above satellite

Ground track
Ground track

The orbit data is extracted from the following two-line orbital elements,

1 20580U 90037B   20017.87727262  .00000348  00000-0  10189-4 0  9993
2 20580  28.4684 242.1595 0002561 258.8903 205.1541 15.09326773433120
Epoch (UTC): 17 January 2020 21:03:16
Eccentricity: 0.0002561
inclination: 28.4684°
perigee height: 536 km
apogee height: 540 km
right ascension of ascending node: 242.1595°
argument of perigee: 258.8903°
revolutions per day: 15.09326773
mean anomaly at epoch: 205.1541°
orbit number at epoch: 43312

The dashed part of the orbit path shows where the satellite is in the earth's shadow,  

DLR